timestamp,wind_dir_avg,wind_spd_max_dir,wind_spd_avg,wind_spd_gust,battery_voltage,lat,long
2018-01-06 00:00:00+00:00,238.0,233.0,9.23,11.57,,47.59359,-54.27349
2018-01-06 00:10:00+00:00,225.0,223.0,7.98,8.94,,47.59359,-54.27349
2018-01-06 00:20:00+00:00,224.0,223.0,8.25,9.05,,47.59359,-54.27349
2018-01-06 00:30:00+00:00,221.0,224.0,6.65,7.62,,47.59359,-54.27349
2018-01-06 00:40:00+00:00,228.0,228.0,5.66,6.38,,47.59359,-54.27349
2018-01-06 00:50:00+00:00,237.0,231.0,4.95,5.93,,47.59359,-54.27349
2018-01-06 01:00:00+00:00,228.0,232.0,2.87,3.33,,47.59359,-54.27349
2018-01-06 01:10:00+00:00,240.0,240.0,4.86,5.64,,47.59359,-54.27349
2018-01-06 01:20:00+00:00,249.0,251.0,4.24,4.77,,47.59359,-54.27349
2018-01-06 01:30:00+00:00,241.0,249.0,4.77,5.58,,47.59359,-54.27349
2018-01-06 01:40:00+00:00,239.0,241.0,4.68,5.21,,47.59359,-54.27349
2018-01-06 01:50:00+00:00,234.0,239.0,4.42,5.24,,47.59359,-54.27349
2018-01-06 02:00:00+00:00,210.0,214.0,4.79,5.12,,47.59359,-54.27349
2018-01-06 02:10:00+00:00,219.0,223.0,5.18,5.62,,47.59359,-54.27349
2018-01-06 02:20:00+00:00,218.0,217.0,4.96,5.51,,47.59359,-54.27349
2018-01-06 02:30:00+00:00,228.0,229.0,5.41,5.77,,47.59359,-54.27349
2018-01-06 02:40:00+00:00,229.0,231.0,7.2,8.29,,47.59359,-54.27349
2018-01-06 02:50:00+00:00,237.0,236.0,7.41,8.39,,47.59359,-54.27349
2018-01-06 03:00:00+00:00,226.0,227.0,7.33,8.49,,47.59359,-54.27349
2018-01-06 03:10:00+00:00,227.0,227.0,8.76,9.7,,47.59359,-54.27349
2018-01-06 03:20:00+00:00,227.0,225.0,8.91,10.27,,47.59359,-54.27349
2018-01-06 03:30:00+00:00,229.0,229.0,7.44,9.1,,47.59359,-54.27349
2018-01-06 03:40:00+00:00,233.0,240.0,8.75,10.2,,47.59359,-54.27349
2018-01-06 03:50:00+00:00,244.0,253.0,10.29,11.96,,47.59359,-54.27349
2018-01-06 04:00:00+00:00,248.0,252.0,10.64,12.55,,47.59359,-54.27349
2018-01-06 04:10:00+00:00,244.0,238.0,10.83,13.19,,47.59359,-54.27349
2018-01-06 04:20:00+00:00,244.0,249.0,9.59,10.9,,47.59359,-54.27349
2018-01-06 04:30:00+00:00,247.0,250.0,10.67,12.45,,47.59359,-54.27349
2018-01-06 04:40:00+00:00,246.0,244.0,10.83,12.43,,47.59359,-54.27349
2018-01-06 04:50:00+00:00,246.0,245.0,10.81,12.71,,47.59359,-54.27349
2018-01-06 05:00:00+00:00,251.0,250.0,11.75,12.75,,47.59359,-54.27349
2018-01-06 05:10:00+00:00,245.0,249.0,9.36,11.72,,47.59359,-54.27349
2018-01-06 05:20:00+00:00,245.0,252.0,11.11,13.32,,47.59359,-54.27349
2018-01-06 05:30:00+00:00,243.0,237.0,10.94,12.96,,47.59359,-54.27349
2018-01-06 05:40:00+00:00,242.0,243.0,12.02,15.56,,47.59359,-54.27349
2018-01-06 05:50:00+00:00,236.0,235.0,13.64,17.01,,47.59359,-54.27349
2018-01-06 06:00:00+00:00,251.0,249.0,15.1,17.96,,47.59359,-54.27349
2018-01-06 06:10:00+00:00,231.0,217.0,15.16,17.74,,47.59359,-54.27349
2018-01-06 06:20:00+00:00,244.0,252.0,14.11,16.19,,47.59359,-54.27349
2018-01-06 06:30:00+00:00,237.0,240.0,16.72,21.22,,47.59359,-54.27349
2018-01-06 06:40:00+00:00,243.0,240.0,15.13,18.09,,47.59359,-54.27349
2018-01-06 06:50:00+00:00,241.0,247.0,14.85,18.62,,47.59359,-54.27349
2018-01-06 07:00:00+00:00,242.0,245.0,15.28,19.39,,47.59359,-54.27349
2018-01-06 07:10:00+00:00,240.0,233.0,15.97,18.14,,47.59359,-54.27349
2018-01-06 07:20:00+00:00,239.0,238.0,15.78,19.31,,47.59359,-54.27349
2018-01-06 07:30:00+00:00,239.0,235.0,16.5,22.65,,47.59359,-54.27349
2018-01-06 07:40:00+00:00,240.0,239.0,13.38,16.1,,47.59359,-54.27349
2018-01-06 07:50:00+00:00,238.0,245.0,14.46,16.92,,47.59359,-54.27349
2018-01-06 08:00:00+00:00,236.0,238.0,14.0,16.15,,47.59359,-54.27349
2018-01-06 08:10:00+00:00,236.0,238.0,14.3,16.26,,47.59359,-54.27349
2018-01-06 08:20:00+00:00,243.0,242.0,15.45,19.78,,47.59359,-54.27349
2018-01-06 08:30:00+00:00,235.0,231.0,17.49,21.57,,47.59359,-54.27349
2018-01-06 08:40:00+00:00,243.0,251.0,16.14,19.42,,47.59359,-54.27349
2018-01-06 08:50:00+00:00,238.0,239.0,13.86,16.71,,47.59359,-54.27349
2018-01-06 09:00:00+00:00,236.0,234.0,16.31,19.86,,47.59359,-54.27349
2018-01-06 09:10:00+00:00,247.0,238.0,15.75,19.09,,47.59359,-54.27349
2018-01-06 09:20:00+00:00,252.0,251.0,13.51,15.91,,47.59359,-54.27349
2018-01-06 09:30:00+00:00,248.0,253.0,12.14,14.4,,47.59359,-54.27349
2018-01-06 09:40:00+00:00,248.0,252.0,13.81,16.17,,47.59359,-54.27349
2018-01-06 09:50:00+00:00,247.0,243.0,11.92,13.92,,47.59359,-54.27349
2018-01-06 10:00:00+00:00,245.0,246.0,14.48,17.88,,47.59359,-54.27349
2018-01-06 10:10:00+00:00,246.0,251.0,16.56,19.84,,47.59359,-54.27349
2018-01-06 10:20:00+00:00,248.0,257.0,17.79,21.61,,47.59359,-54.27349
2018-01-06 10:30:00+00:00,250.0,250.0,17.49,22.52,,47.59359,-54.27349
2018-01-06 10:40:00+00:00,241.0,242.0,15.35,19.24,,47.59359,-54.27349
2018-01-06 10:50:00+00:00,238.0,238.0,16.72,19.98,,47.59359,-54.27349
2018-01-06 11:00:00+00:00,238.0,237.0,15.44,19.64,,47.59359,-54.27349
2018-01-06 11:10:00+00:00,236.0,236.0,17.29,23.45,,47.59359,-54.27349
2018-01-06 11:20:00+00:00,239.0,244.0,17.64,23.72,,47.59359,-54.27349
2018-01-06 11:30:00+00:00,239.0,239.0,16.05,21.5,,47.59359,-54.27349
2018-01-06 11:40:00+00:00,239.0,243.0,18.62,24.94,,47.59359,-54.27349
2018-01-06 11:50:00+00:00,240.0,244.0,18.13,24.14,,47.59359,-54.27349
2018-01-06 12:00:00+00:00,236.0,233.0,19.61,24.52,,47.59359,-54.27349
2018-01-06 12:10:00+00:00,240.0,241.0,17.19,21.1,,47.59359,-54.27349
2018-01-06 12:20:00+00:00,248.0,251.0,15.32,19.85,,47.59359,-54.27349
2018-01-06 12:30:00+00:00,255.0,253.0,15.52,19.66,,47.59359,-54.27349
2018-01-06 12:40:00+00:00,248.0,250.0,19.38,26.33,,47.59359,-54.27349
2018-01-06 12:50:00+00:00,255.0,260.0,16.07,19.07,,47.59359,-54.27349
2018-01-06 13:00:00+00:00,258.0,255.0,16.83,22.23,,47.59359,-54.27349
2018-01-06 13:10:00+00:00,252.0,247.0,16.27,18.65,,47.59359,-54.27349
2018-01-06 13:20:00+00:00,251.0,254.0,15.44,17.67,,47.59359,-54.27349
2018-01-06 13:30:00+00:00,257.0,253.0,15.81,18.86,,47.59359,-54.27349
2018-01-06 13:40:00+00:00,255.0,254.0,14.65,18.39,,47.59359,-54.27349
2018-01-06 13:50:00+00:00,255.0,260.0,14.47,17.25,,47.59359,-54.27349
2018-01-06 14:00:00+00:00,252.0,256.0,13.19,16.28,,47.59359,-54.27349
2018-01-06 14:10:00+00:00,267.0,265.0,14.13,17.37,,47.59359,-54.27349
2018-01-06 14:20:00+00:00,264.0,259.0,15.15,17.56,,47.59359,-54.27349
2018-01-06 14:30:00+00:00,263.0,266.0,17.39,20.4,,47.59359,-54.27349
2018-01-06 14:40:00+00:00,252.0,259.0,14.73,17.15,,47.59359,-54.27349
2018-01-06 14:50:00+00:00,262.0,261.0,15.3,17.84,,47.59359,-54.27349
2018-01-06 15:00:00+00:00,263.0,267.0,15.19,18.86,,47.59359,-54.27349
2018-01-06 15:10:00+00:00,263.0,256.0,17.78,22.2,,47.59359,-54.27349
2018-01-06 15:20:00+00:00,252.0,249.0,17.28,21.32,,47.59359,-54.27349
2018-01-06 15:30:00+00:00,261.0,254.0,16.79,23.26,,47.59359,-54.27349
2018-01-06 15:40:00+00:00,252.0,250.0,16.96,19.66,,47.59359,-54.27349
2018-01-06 15:50:00+00:00,273.0,275.0,13.0,18.97,,47.59359,-54.27349
2018-01-06 16:00:00+00:00,270.0,274.0,15.58,17.33,,47.59359,-54.27349
2018-01-06 16:10:00+00:00,267.0,265.0,15.04,17.33,,47.59359,-54.27349
2018-01-06 16:20:00+00:00,268.0,275.0,18.05,20.91,,47.59359,-54.27349
2018-01-06 16:30:00+00:00,253.0,252.0,18.1,21.96,,47.59359,-54.27349
2018-01-06 16:40:00+00:00,270.0,272.0,15.35,19.56,,47.59359,-54.27349
2018-01-06 16:50:00+00:00,258.0,261.0,14.58,16.91,,47.59359,-54.27349
2018-01-06 17:00:00+00:00,258.0,256.0,15.77,18.52,,47.59359,-54.27349
2018-01-06 17:10:00+00:00,259.0,254.0,14.37,16.54,,47.59359,-54.27349
2018-01-06 17:20:00+00:00,255.0,255.0,15.29,17.59,,47.59359,-54.27349
2018-01-06 17:30:00+00:00,252.0,253.0,17.9,23.71,,47.59359,-54.27349
2018-01-06 17:40:00+00:00,250.0,248.0,15.44,17.85,,47.59359,-54.27349
2018-01-06 17:50:00+00:00,258.0,253.0,15.81,21.77,,47.59359,-54.27349
2018-01-06 18:00:00+00:00,269.0,272.0,15.43,18.05,,47.59359,-54.27349
2018-01-06 18:10:00+00:00,255.0,266.0,17.58,23.86,,47.59359,-54.27349
2018-01-06 18:20:00+00:00,256.0,256.0,17.69,23.7,,47.59359,-54.27349
2018-01-06 18:30:00+00:00,262.0,265.0,17.03,20.94,,47.59359,-54.27349
2018-01-06 18:40:00+00:00,274.0,279.0,17.2,20.14,,47.59359,-54.27349
2018-01-06 18:50:00+00:00,257.0,257.0,21.1,25.63,,47.59359,-54.27349
2018-01-06 19:00:00+00:00,254.0,257.0,18.39,21.8,,47.59359,-54.27349
2018-01-06 19:10:00+00:00,259.0,261.0,17.7,22.77,,47.59359,-54.27349
2018-01-06 19:20:00+00:00,261.0,263.0,19.16,24.02,,47.59359,-54.27349
2018-01-06 19:30:00+00:00,265.0,269.0,19.0,22.31,,47.59359,-54.27349
2018-01-06 19:40:00+00:00,258.0,257.0,20.48,25.02,,47.59359,-54.27349
2018-01-06 19:50:00+00:00,253.0,255.0,18.78,23.73,,47.59359,-54.27349
2018-01-06 20:00:00+00:00,253.0,256.0,21.42,24.8,,47.59359,-54.27349
2018-01-06 20:10:00+00:00,255.0,259.0,20.27,26.54,,47.59359,-54.27349
2018-01-06 20:20:00+00:00,262.0,254.0,21.98,25.27,,47.59359,-54.27349
2018-01-06 20:30:00+00:00,258.0,261.0,18.54,25.35,,47.59359,-54.27349
2018-01-06 20:40:00+00:00,263.0,259.0,20.69,24.4,,47.59359,-54.27349
2018-01-06 20:50:00+00:00,262.0,265.0,20.35,24.83,,47.59359,-54.27349
2018-01-06 21:00:00+00:00,256.0,260.0,18.36,24.05,,47.59359,-54.27349
2018-01-06 21:10:00+00:00,259.0,256.0,18.68,23.76,,47.59359,-54.27349
2018-01-06 21:20:00+00:00,265.0,273.0,17.67,21.63,,47.59359,-54.27349
2018-01-06 21:30:00+00:00,257.0,261.0,19.41,24.58,,47.59359,-54.27349
2018-01-06 21:40:00+00:00,262.0,262.0,22.8,26.69,,47.59359,-54.27349
2018-01-06 21:50:00+00:00,261.0,260.0,21.88,26.07,,47.59359,-54.27349
2018-01-06 22:00:00+00:00,263.0,261.0,19.51,23.73,,47.59359,-54.27349
2018-01-06 22:10:00+00:00,261.0,256.0,20.78,26.29,,47.59359,-54.27349
2018-01-06 22:20:00+00:00,256.0,257.0,21.33,26.08,,47.59359,-54.27349
2018-01-06 22:30:00+00:00,260.0,256.0,19.47,25.03,,47.59359,-54.27349
2018-01-06 22:40:00+00:00,259.0,255.0,18.36,21.86,,47.59359,-54.27349
2018-01-06 22:50:00+00:00,266.0,274.0,20.89,25.3,,47.59359,-54.27349
2018-01-06 23:00:00+00:00,263.0,272.0,20.33,23.98,,47.59359,-54.27349
2018-01-06 23:10:00+00:00,271.0,277.0,22.88,27.89,,47.59359,-54.27349
2018-01-06 23:20:00+00:00,262.0,259.0,24.12,27.2,,47.59359,-54.27349
2018-01-06 23:30:00+00:00,263.0,256.0,23.38,26.32,,47.59359,-54.27349
2018-01-06 23:40:00+00:00,262.0,264.0,20.56,24.28,,47.59359,-54.27349
2018-01-06 23:50:00+00:00,267.0,262.0,16.89,19.82,,47.59359,-54.27349
